ICE581 GCTS-BIKF

Flight info

Callsign ICE581
Flight time 5h 15m
Altitude 36000
Route BIMBO DCT LIDRO DCT NAVIX/M079F360 DCT 40N017W 45N018W 50N019W 55N020W 60N021W/M079F390 61N021W DCT BASLU BASLU3H
Aircraft B38M/M-SDE1FGHILORVWXY/HB1

Departure

Time 2026-04-30 15:11
Airport Tenerife Sur Airport (GCTS)

Arrival

Time 2026-04-30 20:26
Airport Keflavik International Airport (BIKF)
Time Latitude Longitude Altitude Speed Heading
2026-04-30 14:31 28.04732 -16.57628 231 ft 0 kts 338°
2026-04-30 15:01 28.04731 -16.57628 231 ft 1 kts 339°
2026-04-30 15:01 28.04717 -16.57622 231 ft 2 kts 338°
2026-04-30 15:01 28.04689 -16.57609 230 ft 2 kts 338°
2026-04-30 15:02 28.04680 -16.57606 229 ft 2 kts 338°
2026-04-30 15:02 28.04668 -16.57596 229 ft 2 kts 307°
2026-04-30 15:03 28.04662 -16.57555 229 ft 1 kts 246°
2026-04-30 15:03 28.04664 -16.57550 229 ft 0 kts 248°
2026-04-30 15:05 28.04621 -16.57677 229 ft 14 kts 245°
2026-04-30 15:06 28.04461 -16.57738 219 ft 17 kts 248°
2026-04-30 15:06 28.04350 -16.58055 208 ft 26 kts 248°
2026-04-30 15:07 28.04221 -16.58427 205 ft 23 kts 249°
2026-04-30 15:07 28.04133 -16.58716 207 ft 18 kts 250°
2026-04-30 15:08 28.03983 -16.58838 191 ft 18 kts 128°
2026-04-30 15:08 28.03956 -16.58664 188 ft 0 kts 70°
2026-04-30 15:10 28.03965 -16.58634 188 ft 13 kts 70°
2026-04-30 15:11 28.05423 -16.54862 1223 ft 179 kts 71°
2026-04-30 15:11 28.06295 -16.52237 2447 ft 191 kts 69°
2026-04-30 15:12 28.07875 -16.47557 3805 ft 239 kts 69°
2026-04-30 15:13 28.09115 -16.43810 4919 ft 268 kts 69°
2026-04-30 15:14 28.12591 -16.36146 7790 ft 288 kts 26°
2026-04-30 15:14 28.18504 -16.34509 9965 ft 297 kts
2026-04-30 15:16 28.29359 -16.31514 12733 ft 336 kts 11°
2026-04-30 15:17 28.38631 -16.28880 15173 ft 349 kts 10°
2026-04-30 15:18 28.50723 -16.25434 17947 ft 366 kts
2026-04-30 15:19 28.58167 -16.23312 19567 ft 373 kts
2026-04-30 17:39 45.72037 -18.13267 36052 ft 421 kts 351°
2026-04-30 17:42 46.00899 -18.18680 36050 ft 418 kts 351°
2026-04-30 17:43 46.15319 -18.21411 36044 ft 417 kts 351°
2026-04-30 17:44 46.32547 -18.24686 36047 ft 417 kts 351°
2026-04-30 17:47 46.58329 -18.29631 36058 ft 415 kts 352°
2026-04-30 17:48 46.78322 -18.33496 36054 ft 413 kts 351°
2026-04-30 17:50 47.01136 -18.37940 36055 ft 413 kts 352°
2026-04-30 17:52 47.18170 -18.41289 36055 ft 413 kts 352°
2026-04-30 17:54 47.43792 -18.46358 36053 ft 415 kts 352°
2026-04-30 17:56 47.66572 -18.50917 36071 ft 413 kts 352°
2026-04-30 17:58 47.83698 -18.54363 36064 ft 413 kts 352°
2026-04-30 18:00 48.06511 -18.58992 36073 ft 416 kts 352°
2026-04-30 18:01 48.20789 -18.61908 36080 ft 414 kts 352°
2026-04-30 18:02 48.37945 -18.65437 36075 ft 414 kts 351°
2026-04-30 18:04 48.55138 -18.68992 36084 ft 415 kts 351°
2026-04-30 18:06 48.78055 -18.73779 36076 ft 416 kts 351°
2026-04-30 18:08 48.98142 -18.78009 36066 ft 416 kts 352°
2026-04-30 18:10 49.21057 -18.82879 36086 ft 416 kts 352°
2026-04-30 18:11 49.41164 -18.87186 36106 ft 418 kts 352°
2026-04-30 18:13 49.55528 -18.90284 36112 ft 417 kts 352°
2026-04-30 18:14 49.69867 -18.93391 36103 ft 417 kts 352°
2026-04-30 18:15 49.87095 -18.97150 36104 ft 418 kts 352°
2026-04-30 18:16 49.98610 -18.99686 36114 ft 418 kts 352°
2026-04-30 18:17 50.04409 -19.00873 36114 ft 418 kts 354°
2026-04-30 18:18 50.13051 -19.02384 36112 ft 419 kts 354°
2026-04-30 18:18 50.18814 -19.03393 36122 ft 418 kts 354°
2026-04-30 18:19 50.24594 -19.04419 36116 ft 418 kts 354°
2026-04-30 18:19 50.30403 -19.05461 36115 ft 420 kts 354°
2026-04-30 18:20 50.36206 -19.06509 36121 ft 420 kts 354°
2026-04-30 18:20 50.41979 -19.07557 36118 ft 419 kts 354°
2026-04-30 18:21 50.47810 -19.08622 36123 ft 420 kts 354°
2026-04-30 18:21 50.53566 -19.09673 36287 ft 421 kts 354°
2026-04-30 18:21 50.56470 -19.10204 36158 ft 417 kts 354°
2026-04-30 18:22 50.59347 -19.10731 36133 ft 414 kts 354°
2026-04-30 18:22 50.67964 -19.12310 36129 ft 419 kts 354°
2026-04-30 18:23 50.73714 -19.13367 36129 ft 418 kts 354°
2026-04-30 18:23 50.79477 -19.14432 36135 ft 416 kts 354°
2026-04-30 18:24 50.88126 -19.16034 36131 ft 418 kts 354°
2026-04-30 18:25 50.93881 -19.17101 36135 ft 417 kts 355°
2026-04-30 18:25 51.02545 -19.18711 36138 ft 419 kts 355°
2026-04-30 18:26 51.11204 -19.20332 36142 ft 418 kts 354°
2026-04-30 18:27 51.19848 -19.21953 36143 ft 419 kts 355°
2026-04-30 18:28 51.28519 -19.23585 36141 ft 419 kts 355°
2026-04-30 18:28 51.37214 -19.25226 36147 ft 421 kts 355°
2026-04-30 18:29 51.48804 -19.27430 36155 ft 420 kts 355°
2026-04-30 18:30 51.60411 -19.29643 36077 ft 420 kts 355°
2026-04-30 18:31 51.69186 -19.31327 36150 ft 426 kts 355°
2026-04-30 18:32 51.77972 -19.33019 36157 ft 424 kts 355°
2026-04-30 18:33 51.86756 -19.34715 36158 ft 424 kts 355°
2026-04-30 18:33 51.95501 -19.36412 36158 ft 424 kts 355°
2026-04-30 18:34 52.04336 -19.38133 36164 ft 426 kts 355°
2026-04-30 18:35 52.10183 -19.39277 36168 ft 426 kts 355°
2026-04-30 18:35 52.16062 -19.40431 36164 ft 425 kts 355°
2026-04-30 18:36 52.24811 -19.42150 36164 ft 425 kts 355°
2026-04-30 18:37 52.33649 -19.43893 36173 ft 426 kts 355°
2026-04-30 18:37 52.39500 -19.45050 36168 ft 426 kts 355°
2026-04-30 18:38 52.45379 -19.46216 36181 ft 426 kts 355°
2026-04-30 18:38 52.51266 -19.47389 36176 ft 426 kts 355°
2026-04-30 18:39 52.57155 -19.48565 36174 ft 426 kts 355°
2026-04-30 18:39 52.63039 -19.49743 36184 ft 427 kts 355°
2026-04-30 18:40 52.68903 -19.50919 36185 ft 428 kts 355°
2026-04-30 18:40 52.74796 -19.52105 36182 ft 427 kts 355°
2026-04-30 18:41 52.80717 -19.53299 36182 ft 428 kts 355°
2026-04-30 18:41 52.86598 -19.54490 36193 ft 427 kts 355°
2026-04-30 18:42 52.92498 -19.55687 36195 ft 427 kts 354°
2026-04-30 18:42 53.01340 -19.57487 36197 ft 428 kts 354°
2026-04-30 18:45 53.33715 -19.64143 36208 ft 428 kts 354°
2026-04-30 18:46 53.39630 -19.65369 36201 ft 427 kts 354°
2026-04-30 18:46 53.45499 -19.66589 36207 ft 427 kts 354°
2026-04-30 18:47 53.51406 -19.67823 36209 ft 426 kts 354°
2026-04-30 18:47 53.57261 -19.69047 36208 ft 427 kts 354°
2026-04-30 18:48 53.63152 -19.70281 36209 ft 427 kts 354°
2026-04-30 18:48 53.69006 -19.71511 36215 ft 426 kts 354°
2026-04-30 18:49 53.74890 -19.72752 36220 ft 426 kts 353°
2026-04-30 18:49 53.80738 -19.73990 36218 ft 426 kts 354°
2026-04-30 18:50 53.86619 -19.75237 36230 ft 425 kts 354°
2026-04-30 18:50 53.92460 -19.76479 36227 ft 425 kts 354°
2026-04-30 18:51 53.98349 -19.77736 36228 ft 426 kts 353°
2026-04-30 18:51 54.04159 -19.78980 36226 ft 425 kts 353°
2026-04-30 18:52 54.10021 -19.80238 36229 ft 424 kts 353°
2026-04-30 18:52 54.15859 -19.81493 36242 ft 423 kts 354°
2026-04-30 18:53 54.21704 -19.82754 36232 ft 423 kts 353°
2026-04-30 18:53 54.27498 -19.84007 36238 ft 422 kts 354°
2026-04-30 18:54 54.33292 -19.85263 36245 ft 421 kts 354°
2026-04-30 18:54 54.39108 -19.86527 36241 ft 421 kts 353°
2026-04-30 18:55 54.44904 -19.87790 36241 ft 421 kts 353°
2026-04-30 18:55 54.53589 -19.89694 36243 ft 421 kts 353°
2026-04-30 18:56 54.62242 -19.91595 36244 ft 420 kts 353°
2026-04-30 18:57 54.70890 -19.93506 36248 ft 418 kts 353°
2026-04-30 18:57 54.76650 -19.94783 36250 ft 419 kts 353°
2026-04-30 18:58 54.85276 -19.96702 36253 ft 417 kts 353°
2026-04-30 18:59 54.93896 -19.98624 36252 ft 417 kts 353°
2026-04-30 19:00 55.05392 -20.01047 36261 ft 416 kts 355°
2026-04-30 19:01 55.16810 -20.02965 36253 ft 414 kts 355°
2026-04-30 19:02 55.25407 -20.04458 36262 ft 414 kts 355°
2026-04-30 19:03 55.36841 -20.06483 36259 ft 414 kts 354°
2026-04-30 19:04 55.48251 -20.08520 36269 ft 414 kts 354°
2026-04-30 19:05 55.59694 -20.10571 36278 ft 415 kts 354°
2026-04-30 19:06 55.71115 -20.12632 36277 ft 414 kts 354°
2026-04-30 19:06 55.79693 -20.14187 36277 ft 414 kts 354°
2026-04-30 19:07 55.88258 -20.15746 36281 ft 414 kts 354°
2026-04-30 19:08 55.99640 -20.17829 36279 ft 415 kts 354°
2026-04-30 19:09 56.08237 -20.19413 36273 ft 415 kts 353°
2026-04-30 19:09 56.13990 -20.20473 36273 ft 415 kts 353°
2026-04-30 19:10 56.25450 -20.22597 36274 ft 417 kts 353°
2026-04-30 19:11 56.34092 -20.24210 36278 ft 416 kts 353°
2026-04-30 19:12 56.39811 -20.25281 36275 ft 417 kts 353°
2026-04-30 19:12 56.45571 -20.26363 36277 ft 417 kts 353°
2026-04-30 19:13 56.57091 -20.28535 36275 ft 417 kts 353°
2026-04-30 19:14 56.62832 -20.29624 36275 ft 418 kts 353°
2026-04-30 19:14 56.68584 -20.30719 36276 ft 419 kts 353°
2026-04-30 19:15 56.74399 -20.31829 36268 ft 420 kts 353°
2026-04-30 19:15 56.83078 -20.33492 36265 ft 419 kts 353°
2026-04-30 19:16 56.88880 -20.34607 36262 ft 420 kts 352°
2026-04-30 19:17 56.97562 -20.36277 36266 ft 421 kts 352°
2026-04-30 19:17 57.06308 -20.37974 36261 ft 423 kts 352°
2026-04-30 19:18 57.15030 -20.39670 36257 ft 421 kts 352°
2026-04-30 19:19 57.20869 -20.40811 36259 ft 422 kts 352°
2026-04-30 19:19 57.29566 -20.42520 36257 ft 422 kts 352°
2026-04-30 19:20 57.35392 -20.43666 36252 ft 423 kts 352°
2026-04-30 19:21 57.44160 -20.45400 36247 ft 422 kts 352°
2026-04-30 19:22 57.55824 -20.47721 36243 ft 423 kts 352°
2026-04-30 19:23 57.73351 -20.51238 36227 ft 424 kts 352°
2026-04-30 19:24 57.82084 -20.53001 36224 ft 424 kts 352°
2026-04-30 19:25 57.96719 -20.55977 36214 ft 425 kts 351°
2026-04-30 19:26 58.08429 -20.58378 36215 ft 424 kts 351°
2026-04-30 19:27 58.17229 -20.60192 36211 ft 424 kts 351°
2026-04-30 19:28 58.25991 -20.62006 36203 ft 425 kts 351°
2026-04-30 19:29 58.37705 -20.64447 36203 ft 425 kts 351°
2026-04-30 19:30 58.49457 -20.66906 36195 ft 424 kts 350°
2026-04-30 19:31 58.61203 -20.69384 36182 ft 425 kts 350°
2026-04-30 19:31 58.69984 -20.71245 36185 ft 426 kts 350°
2026-04-30 19:32 58.75838 -20.72493 36184 ft 425 kts 350°
2026-04-30 19:32 58.81696 -20.73748 36188 ft 425 kts 350°
2026-04-30 19:33 58.87566 -20.75010 36181 ft 425 kts 350°
2026-04-30 19:33 58.93411 -20.76273 36179 ft 426 kts 350°
2026-04-30 19:34 58.99276 -20.77537 36170 ft 425 kts 349°
2026-04-30 19:35 59.08075 -20.79443 36165 ft 426 kts 349°
2026-04-30 19:35 59.13935 -20.80724 36173 ft 426 kts 349°
2026-04-30 19:36 59.19824 -20.82010 36158 ft 426 kts 349°
2026-04-30 19:36 59.28623 -20.83943 36153 ft 427 kts 349°
2026-04-30 19:37 59.34502 -20.85241 36139 ft 427 kts 349°
2026-04-30 19:37 59.40367 -20.86539 36141 ft 428 kts 349°
2026-04-30 19:38 59.46286 -20.87850 36144 ft 427 kts 349°
2026-04-30 19:38 59.52159 -20.89157 36129 ft 428 kts 349°
2026-04-30 19:39 59.57835 -20.90427 36118 ft 429 kts 349°
2026-04-30 19:39 59.63762 -20.91756 36122 ft 428 kts 349°
2026-04-30 19:40 59.69644 -20.93084 36125 ft 429 kts 348°
2026-04-30 19:40 59.75563 -20.94423 36116 ft 429 kts 348°
2026-04-30 19:41 59.81488 -20.95765 36111 ft 429 kts 348°
2026-04-30 19:41 59.87454 -20.97120 36100 ft 430 kts 348°
2026-04-30 19:42 59.93375 -20.98480 36090 ft 430 kts 348°
2026-04-30 19:42 59.99318 -20.99805 36090 ft 431 kts 350°
2026-04-30 19:43 60.05367 -21.00291 36098 ft 437 kts 354°
2026-04-30 19:44 60.14462 -21.00137 36082 ft 436 kts 355°
2026-04-30 19:44 60.20542 -21.00060 36078 ft 444 kts 354°
2026-04-30 19:45 60.26790 -21.00035 36062 ft 454 kts 354°
2026-04-30 19:45 60.33139 -21.00024 36058 ft 454 kts 354°
2026-04-30 19:46 60.39412 -21.00010 36069 ft 455 kts 354°
2026-04-30 19:46 60.45746 -21.00004 36043 ft 455 kts 354°
2026-04-30 19:47 60.52073 -21.00005 36063 ft 456 kts 354°
2026-04-30 19:47 60.58388 -21.00004 36051 ft 457 kts 354°
2026-04-30 19:48 60.64757 -21.00008 36039 ft 457 kts 354°
2026-04-30 19:48 60.71109 -21.00005 36051 ft 458 kts 354°
2026-04-30 19:49 60.77477 -21.00001 36038 ft 457 kts 354°
2026-04-30 19:49 60.87024 -21.00002 36033 ft 460 kts 354°
2026-04-30 19:50 60.93400 -21.00003 36305 ft 460 kts 354°
2026-04-30 19:50 60.96588 -21.00003 36107 ft 460 kts 354°
2026-04-30 19:50 60.99787 -20.99997 36044 ft 454 kts 353°
2026-04-30 19:51 61.06076 -21.00387 36013 ft 454 kts 350°
2026-04-30 19:51 61.12365 -21.01217 36014 ft 455 kts 350°
2026-04-30 19:52 61.18675 -21.02066 36005 ft 454 kts 350°
2026-04-30 19:52 61.24968 -21.02867 35994 ft 454 kts 350°
2026-04-30 19:53 61.31270 -21.03640 35996 ft 456 kts 350°
2026-04-30 19:53 61.37604 -21.04405 35983 ft 457 kts 350°
2026-04-30 19:54 61.43937 -21.05158 35977 ft 455 kts 350°
2026-04-30 19:54 61.50275 -21.05911 35974 ft 455 kts 350°
2026-04-30 19:55 61.56541 -21.06664 35968 ft 455 kts 350°
2026-04-30 19:55 61.62872 -21.07425 35958 ft 455 kts 350°
2026-04-30 19:56 61.69214 -21.08195 35955 ft 458 kts 350°
2026-04-30 19:56 61.75604 -21.08969 35950 ft 458 kts 350°
2026-04-30 19:57 61.81934 -21.09733 35944 ft 458 kts 350°
2026-04-30 19:57 61.88253 -21.10501 35955 ft 457 kts 349°
2026-04-30 19:58 61.94623 -21.11283 35945 ft 457 kts 350°
2026-04-30 19:58 62.00957 -21.12062 35933 ft 458 kts 349°
2026-04-30 19:59 62.07285 -21.12845 35931 ft 457 kts 350°
2026-04-30 20:00 62.16851 -21.14037 35929 ft 459 kts 350°
2026-04-30 20:00 62.23201 -21.14835 35923 ft 459 kts 350°
2026-04-30 20:01 62.32772 -21.16035 35922 ft 459 kts 350°
2026-04-30 20:01 62.39144 -21.16842 35911 ft 460 kts 350°
2026-04-30 20:02 62.48718 -21.18057 35904 ft 460 kts 350°
2026-04-30 20:03 62.58173 -21.19241 35899 ft 442 kts 350°
2026-04-30 20:03 62.64238 -21.20007 35727 ft 439 kts 349°
2026-04-30 20:04 62.67296 -21.20412 35139 ft 442 kts 349°
2026-04-30 20:04 62.70347 -21.20817 34582 ft 442 kts 349°
2026-04-30 20:04 62.73385 -21.21217 34042 ft 441 kts 350°
2026-04-30 20:05 62.79430 -21.21995 33176 ft 435 kts 349°
2026-04-30 20:05 62.82460 -21.22397 32484 ft 439 kts 349°
2026-04-30 20:05 62.88535 -21.23204 31318 ft 439 kts 349°
2026-04-30 20:06 62.91583 -21.23601 30676 ft 438 kts 348°
2026-04-30 20:06 62.94601 -21.23994 29782 ft 440 kts 348°
2026-04-30 20:06 62.97645 -21.24397 28850 ft 442 kts 348°
2026-04-30 20:06 63.00692 -21.24803 27891 ft 443 kts 348°
2026-04-30 20:07 63.03775 -21.25215 26837 ft 446 kts 348°
2026-04-30 20:07 63.06838 -21.25623 26024 ft 443 kts 348°
2026-04-30 20:07 63.13002 -21.26437 24988 ft 446 kts 348°
2026-04-30 20:08 63.16035 -21.26996 24399 ft 434 kts 344°
2026-04-30 20:08 63.18938 -21.28122 23831 ft 417 kts 336°
2026-04-30 20:08 63.21607 -21.30095 23285 ft 403 kts 329°
2026-04-30 20:08 63.24142 -21.32595 22742 ft 397 kts 326°
2026-04-30 20:09 63.26614 -21.35325 22205 ft 394 kts 325°
2026-04-30 20:09 63.28995 -21.38057 21680 ft 390 kts 324°
2026-04-30 20:09 63.33762 -21.43546 20473 ft 383 kts 324°
2026-04-30 20:10 63.38431 -21.48846 19165 ft 374 kts 324°
2026-04-30 20:10 63.40726 -21.51438 18510 ft 369 kts 324°
2026-04-30 20:10 63.42986 -21.53990 17864 ft 365 kts 325°
2026-04-30 20:11 63.47452 -21.59036 16605 ft 357 kts 325°
2026-04-30 20:11 63.49647 -21.61519 16019 ft 353 kts 325°
2026-04-30 20:11 63.51796 -21.63955 15358 ft 350 kts 325°
2026-04-30 20:12 63.56089 -21.68829 13989 ft 345 kts 325°
2026-04-30 20:12 63.58215 -21.71248 13303 ft 343 kts 325°
2026-04-30 20:12 63.60329 -21.73662 12639 ft 340 kts 326°
2026-04-30 20:13 63.62386 -21.75992 12717 ft 315 kts 325°
2026-04-30 20:13 63.64277 -21.78131 12715 ft 302 kts 325°
2026-04-30 20:13 63.66128 -21.80255 12300 ft 299 kts 325°
2026-04-30 20:13 63.67977 -21.82404 11672 ft 302 kts 325°
2026-04-30 20:14 63.69837 -21.84593 11013 ft 304 kts 325°
2026-04-30 20:14 63.71713 -21.86783 10368 ft 305 kts 326°
2026-04-30 20:14 63.73591 -21.88945 9916 ft 300 kts 327°
2026-04-30 20:14 63.75409 -21.91016 9525 ft 294 kts 327°
2026-04-30 20:15 63.77222 -21.93088 9138 ft 288 kts 327°
2026-04-30 20:15 63.78975 -21.95102 8856 ft 280 kts 327°
2026-04-30 20:15 63.80700 -21.97093 8586 ft 272 kts 327°
2026-04-30 20:15 63.82360 -21.99019 8326 ft 266 kts 327°
2026-04-30 20:16 63.83993 -22.00923 8054 ft 264 kts 327°
2026-04-30 20:16 63.85623 -22.02828 7791 ft 265 kts 328°
2026-04-30 20:16 63.87232 -22.04704 7508 ft 263 kts 328°
2026-04-30 20:16 63.88865 -22.06611 7109 ft 263 kts 328°
2026-04-30 20:17 63.90482 -22.08498 6782 ft 261 kts 328°
2026-04-30 20:17 63.92096 -22.10384 6403 ft 260 kts 328°
2026-04-30 20:17 63.93696 -22.12252 6004 ft 260 kts 329°
2026-04-30 20:17 63.95306 -22.14140 5604 ft 259 kts 329°
2026-04-30 20:18 63.96913 -22.16027 5215 ft 259 kts 329°
2026-04-30 20:18 63.98499 -22.17888 4988 ft 251 kts 329°
2026-04-30 20:18 64.00009 -22.19657 4981 ft 244 kts 329°
2026-04-30 20:18 64.01520 -22.21440 4982 ft 245 kts 329°
2026-04-30 20:19 64.03024 -22.23219 4981 ft 245 kts 329°
2026-04-30 20:19 64.04552 -22.25026 4982 ft 246 kts 329°
2026-04-30 20:19 64.06065 -22.26813 4950 ft 244 kts 329°
2026-04-30 20:19 64.07557 -22.28578 4662 ft 243 kts 329°
2026-04-30 20:20 64.09049 -22.30366 4284 ft 244 kts 327°
2026-04-30 20:20 64.10473 -22.32469 3897 ft 243 kts 321°
2026-04-30 20:20 64.11831 -22.34817 3510 ft 244 kts 319°
2026-04-30 20:20 64.13178 -22.37206 3126 ft 245 kts 320°
2026-04-30 20:21 64.14479 -22.39583 2977 ft 234 kts 315°
2026-04-30 20:21 64.15467 -22.42372 2973 ft 214 kts 291°
2026-04-30 20:21 64.15706 -22.45528 2982 ft 195 kts 264°
2026-04-30 20:21 64.15433 -22.48543 2709 ft 195 kts 251°
2026-04-30 20:22 64.14977 -22.51477 2326 ft 198 kts 249°
2026-04-30 20:22 64.14496 -22.54396 2160 ft 190 kts 249°
2026-04-30 20:22 64.14017 -22.57190 2171 ft 189 kts 244°
2026-04-30 20:22 64.13245 -22.59512 2169 ft 187 kts 218°
2026-04-30 20:23 64.12049 -22.60592 2168 ft 186 kts 187°
2026-04-30 20:23 64.10752 -22.60375 2167 ft 186 kts 179°
2026-04-30 20:23 64.09460 -22.60243 2170 ft 182 kts 182°
2026-04-30 20:23 64.08264 -22.60197 2176 ft 164 kts 182°
2026-04-30 20:24 64.07128 -22.60265 2084 ft 158 kts 187°
2026-04-30 20:24 64.06081 -22.60428 1835 ft 142 kts 187°
2026-04-30 20:24 64.05104 -22.60533 1587 ft 141 kts 185°
2026-04-30 20:24 64.04132 -22.60583 1380 ft 138 kts 184°
2026-04-30 20:25 64.02193 -22.60461 1001 ft 143 kts 182°
2026-04-30 20:25 64.01194 -22.60515 662 ft 143 kts 184°
2026-04-30 20:26 63.99276 -22.60541 218 ft 135 kts 183°
2026-04-30 20:26 63.97969 -22.60547 171 ft 55 kts 184°
2026-04-30 20:26 63.97616 -22.60544 168 ft 41 kts 180°
2026-04-30 20:27 63.97431 -22.60702 163 ft 10 kts 286°
2026-04-30 20:27 63.97450 -22.60851 161 ft 4 kts 286°
2026-04-30 20:28 63.97506 -22.60941 160 ft 8 kts
2026-04-30 20:28 63.97713 -22.60943 165 ft 26 kts
2026-04-30 20:29 63.98132 -22.60943 167 ft 31 kts
2026-04-30 20:30 63.98786 -22.60945 164 ft 24 kts
2026-04-30 20:30 63.98854 -22.62056 147 ft 30 kts 270°
2026-04-30 20:31 63.98997 -22.62803 140 ft 20 kts 19°
2026-04-30 20:32 63.99379 -22.62710 143 ft 15 kts 15°
2026-04-30 20:32 63.99543 -22.62613 145 ft 8 kts 83°
2026-04-30 20:33 63.99544 -22.62491 146 ft 5 kts 90°
2026-04-30 20:33 63.99544 -22.62465 146 ft 0 kts 90°